This is the latest recevied weather packets stored in our database for station/object NO9B. If no packets are shown the sender has not sent any weather packets the latest 10 day(s).
| Time | Temp. | Humidity | Pressure | Rain* | Wind** | Luminosity | Snow |
|---|---|---|---|---|---|---|---|
| 1788553150 | 29.44° C | 77% | 1013.4 hPa | 0 mm | - | 306 W/m² | - |
| 1788552845 | 28.89° C | 77% | 1013.3 hPa | 0 mm | - | 302 W/m² | - |
| 1788552540 | 28.89° C | 76% | 1013.4 hPa | 0 mm | - | 117 W/m² | - |
| 1788552239 | 29.44° C | 76% | 1013.6 hPa | 0 mm | - | 120 W/m² | - |
| 1788551934 | 28.89° C | 76% | 1013.6 hPa | 0 mm | - | 380 W/m² | - |
| 1788551632 | 29.44° C | 76% | 1013.3 hPa | 0 mm | - | 132 W/m² | - |
| 1788551327 | 29.44° C | 76% | 1013.4 hPa | 0 mm | - | 169 W/m² | - |
| 1788551026 | 29.44° C | 75% | 1013.7 hPa | 0 mm | - | 442 W/m² | - |
| 1788550722 | 28.89° C | 77% | 1014 hPa | 0 mm | - | 485 W/m² | - |
| 1788550417 | 28.89° C | 76% | 1014 hPa | 0 mm | - | 436 W/m² | - |
| 1788550112 | 28.89° C | 81% | 1014 hPa | 0 mm | - | 321 W/m² | - |
| 1788549807 | 28.33° C | 80% | 1014.4 hPa | 0 mm | - | 660 W/m² | - |
| 1788549504 | 28.33° C | 81% | 1014 hPa | 0 mm | - | 407 W/m² | - |
| 1788549200 | 28.33° C | 80% | 1014 hPa | 0 mm | - | 660 W/m² | - |
| 1788548896 | 27.78° C | 81% | 1014.1 hPa | 0 mm | - | 201 W/m² | - |
| 1788548592 | 27.22° C | 82% | 1014.5 hPa | 0 mm | - | 197 W/m² | - |
| 1788548288 | 27.78° C | 82% | 1014.3 hPa | 0 mm | - | 131 W/m² | - |
| 1788547983 | 27.78° C | 78% | 1014.1 hPa | 0 mm | - | 119 W/m² | - |
| 1788547682 | 27.78° C | 78% | 1014.3 hPa | 0 mm | - | 609 W/m² | - |
| 1788547378 | 27.22° C | 80% | 1014 hPa | 0 mm | - | 692 W/m² | - |
| 1788547073 | 27.22° C | 82% | 1014.1 hPa | 0 mm | - | 243 W/m² | - |
| 1788546768 | 26.67° C | 85% | 1014 hPa | 0 mm | - | 661 W/m² | - |
| 1788546463 | 26.11° C | 85% | 1014.3 hPa | 0 mm | - | 589 W/m² | - |
| 1788546164 | 25.56° C | 86% | 1014.6 hPa | 0 mm | - | 429 W/m² | - |
| 1788545854 | 25° C | 90% | 1014.5 hPa | 0 mm | - | 439 W/m² | - |
* Rain latest hour (hover to see other rain measurements)
** Current wind speed in m/s (hover to see current wind gust speed)